Погода в Кальяо Сальвахе

Испания     28°07′45″N   16°46′37″W
темп.,
°C
ветер,
м/с
пор.,
м/с
влажн.,
%
обл.,
%
осадки,
мм/ч
давл.,
гПа
погр.,
м
11 мая, вт
вт1101:00+12всв458235 0.0 1024210
04:00+11всв458023 0.0 1022158
07:00+11в45792 0.0 1023125
10:00+15в346045 0.0 1023476
13:00+18в025416 0.0 1023707
16:00+18вюв03568 0.0 1022674
19:00+16всв13626 0.0 1022520
22:00+14всв45682 0.0 1024187
12 мая, ср
ср1201:00+13в346410 0.0 1025132
04:00+13всв346634 0.0 1023107
07:00+12всв456799 0.0 102396
10:00+16в2351100 0.0 1024420
13:00+20с244385 0.0 1023660
16:00+20юв245093 0.0 1022605
19:00+18в344899 0.0 1022465
22:00+17всв444963 0.0 1023164
13 мая, чт
чт1301:00+16в3449100 0.0 102496
04:00+14в33571 0.0 102270
07:00+13в45662 0.0 102288
10:00+17всв23560 0.0 1022486
13:00+19с035513 0.0 1022789
16:00+19ссв036037 0.0 1021811
19:00+18св34624 0.1 1020615
22:00+15св34633 0.0 1021216
14 мая, пт
пт1401:00+13всв55560 0.0 1022162
04:00+13всв55500 0.0 1020128
07:00+12всв56581 0.0 1020108
10:00+17всв46450 0.0 1021549
13:00+20св46403 0.0 1020922
16:00+21св35404 0.0 10191005
19:00+19всв35450 0.0 1019611
22:00+14св45645 0.0 1020235
15 мая, сб
сб1501:00+14всв4559100 0.0 1020149
04:00+13всв456754 0.0 1018123
07:00+13всв55654 0.0 101889
10:00+17св23541 0.0 1019517
13:00+22ссв24373 0.0 1017820
16:00+22ссв134423 0.0 1017801
19:00+20всв244751 0.0 1016494
22:00+18всв44480 0.0 1018157